Вернуться в каталог

CZ-4B SEP MOTOR COVER

АктивенPO
NORAD 44891·DEBRIS·🇨🇳 China
Это название спутника еще не подтверждено официальными источниками.

Запущен Dec 20, 2019 с Taiyuan Satellite Launch Center

Loading…

Ближайшие Пролёты (ближайшие 24 часа)

TLE

СвежийSource: Space-Track

Эпоха: Sep 14, 2026, 14:19 UTC

1 44891U 19093N   26257.59701416  .00024223  00000-0  62633-3 0  9999
2 44891  98.0657  72.9823 0006169  86.6990 273.4959 15.39086863368515

Отслеживайте CZ-4B SEP MOTOR COVER в реальном времени с AllMySat

Download on the App Store